period_start,C,m1,H,J0,J1,J2,J3,J4,J5,JA,JB,JC,JD,JJ,JK,JN,#
2015-01-15 00:01:02,0.22,8.36,0.00,23.34,27.85,30.63,4.84,28.08,1032.24,2025.99,1358.10,1739.44,1887.79,350.29,352.89,33.24,0000 0000 0000 0000 000000
2015-01-15 00:06:03,0.16,8.36,0.00,23.33,27.85,30.65,4.83,27.98,1032.25,2025.97,1357.47,1738.95,1887.02,349.67,352.24,33.27,0000 0000 0000 0000 000000
2015-01-15 00:11:04,0.20,8.37,0.00,23.35,27.87,30.66,4.92,27.93,1032.26,2025.94,1356.83,1738.12,1886.17,350.06,352.71,33.30,0000 0000 0000 0000 000000
2015-01-15 00:16:06,0.16,8.38,0.00,23.38,27.88,30.66,4.93,27.93,1032.26,2025.93,1356.06,1737.79,1885.77,350.19,352.68,33.33,0000 0000 0000 0000 000000
2015-01-15 00:21:07,0.19,8.38,0.00,23.45,27.90,30.61,4.83,27.98,1032.26,2025.89,1355.45,1737.05,1885.04,350.07,352.42,33.36,0000 0000 0000 0000 000000
2015-01-15 00:26:08,0.17,8.39,0.00,23.46,27.91,30.58,4.76,27.71,1032.25,2025.73,1354.77,1736.53,1884.29,349.16,351.55,33.39,0000 0000 0000 0000 000000
2015-01-15 00:31:10,0.05,8.39,0.00,23.47,27.92,30.60,4.90,28.15,1032.23,2025.42,1354.00,1735.97,1883.80,350.46,352.83,33.42,0000 0000 0000 0000 000000
2015-01-15 00:36:11,0.24,8.40,0.00,23.47,27.94,30.59,4.84,28.06,1031.89,2025.30,1353.22,1735.17,1883.04,350.07,352.25,33.45,0000 0000 0000 0000 000000
2015-01-15 00:41:12,0.21,8.40,0.00,23.44,27.95,30.62,4.83,28.23,1031.76,2025.07,1352.45,1734.55,1882.26,350.10,352.35,33.48,0000 0000 0000 0000 000000
2015-01-15 00:46:13,0.13,8.41,0.00,23.43,27.96,30.67,4.85,28.13,1031.76,2025.06,1351.75,1733.99,1881.65,349.97,352.04,33.51,0000 0000 0000 0000 000000
2015-01-15 00:51:14,0.19,8.41,0.00,23.43,27.97,30.70,4.84,28.37,1031.76,2025.03,1351.02,1733.22,1881.00,349.31,351.65,33.54,0000 0000 0000 0000 000000
2015-01-15 00:56:16,0.20,8.42,0.00,23.43,27.97,30.73,4.84,28.27,1031.77,2025.04,1350.29,1732.88,1880.30,349.95,352.41,33.57,0000 0000 0000 0000 000000
2015-01-15 01:01:17,0.20,8.42,0.00,23.40,27.99,30.74,4.89,28.15,1031.94,2025.01,1349.62,1732.10,1879.74,350.33,352.76,33.59,0000 0000 0000 0000 000000
2015-01-15 01:06:18,0.15,8.43,0.00,23.41,28.00,30.79,4.89,28.22,1031.97,2025.01,1348.97,1731.66,1879.03,349.89,352.54,33.62,0000 0000 0000 0000 000000
2015-01-15 01:11:20,0.21,8.44,0.00,23.39,28.00,30.83,4.87,28.16,1031.76,2025.00,1348.16,1731.02,1878.34,350.18,352.46,33.65,0000 0000 0000 0000 000000
2015-01-15 01:16:21,0.19,8.44,0.00,23.39,28.00,30.86,4.91,28.11,1031.79,2025.00,1347.63,1730.49,1877.89,350.09,352.67,33.68,0000 0000 0000 0000 000000
2015-01-15 01:21:22,0.12,8.45,0.00,23.39,28.00,30.87,4.80,28.15,1032.16,2025.01,1346.96,1729.98,1877.11,350.61,353.13,33.71,0000 0000 0000 0000 000000
2015-01-15 01:26:23,0.26,8.45,0.00,23.40,28.02,30.88,4.90,28.09,1032.24,2025.01,1346.13,1729.34,1876.62,349.91,352.48,33.74,0000 0000 0000 0000 000000
2015-01-15 01:31:24,0.14,8.46,0.00,23.42,28.02,30.90,4.90,28.07,1032.24,2025.00,1345.54,1728.89,1876.00,350.29,352.74,33.77,0000 0000 0000 0000 000000
2015-01-15 01:36:26,0.19,8.46,0.00,23.43,28.02,30.92,4.80,28.04,1032.25,2025.00,1344.92,1728.11,1875.35,349.81,352.33,33.80,0000 0000 0000 0000 000000
2015-01-15 01:41:27,0.17,8.47,0.00,23.42,28.02,30.92,4.86,28.01,1032.24,2025.00,1344.08,1727.82,1874.80,349.99,352.52,33.83,0000 0000 0000 0000 000000
2015-01-15 01:46:28,0.20,8.47,0.00,23.42,28.02,30.89,4.90,28.03,1032.25,2025.00,1343.60,1727.06,1874.05,350.19,352.71,33.86,0000 0000 0000 0000 000000
2015-01-15 01:51:29,0.11,8.48,0.00,23.43,28.04,30.86,4.87,28.06,1032.25,2025.00,1343.01,1726.86,1873.55,349.91,352.49,33.89,0000 0000 0000 0000 000000
2015-01-15 01:56:31,0.19,8.48,0.00,23.48,28.05,30.77,4.87,27.88,1032.27,2025.00,1342.56,1726.07,1872.98,349.95,352.38,33.92,0000 0000 0000 0000 000000
2015-01-15 02:01:32,0.16,8.49,0.00,23.49,28.05,30.75,4.96,28.07,1032.39,2025.00,1341.95,1725.71,1872.19,350.08,352.84,33.95,0000 0000 0000 0000 000000
2015-01-15 02:06:33,0.18,8.49,0.00,23.51,28.06,30.75,4.85,28.00,1032.34,2025.00,1341.15,1725.03,1871.87,349.89,352.34,33.98,0000 0000 0000 0000 000000
2015-01-15 02:11:34,0.16,8.50,0.00,23.54,28.07,30.74,4.87,28.20,1032.24,2025.00,1340.81,1724.65,1871.09,350.17,352.59,34.01,0000 0000 0000 0000 000000
2015-01-15 02:16:36,0.17,8.50,0.00,23.52,28.07,30.74,4.90,28.23,1032.23,2025.00,1340.06,1724.02,1870.60,349.90,352.13,34.03,0000 0000 0000 0000 000000
2015-01-15 02:21:37,0.23,8.51,0.00,23.51,28.07,30.77,4.93,28.17,1032.23,2024.99,1339.36,1723.47,1869.98,350.02,352.05,34.06,0000 0000 0000 0000 000000
2015-01-15 02:26:38,0.11,8.51,0.00,23.54,28.09,30.79,4.85,28.09,1032.17,2024.98,1338.83,1722.99,1869.26,350.25,352.70,34.09,0000 0000 0000 0000 000000
2015-01-15 02:31:40,0.21,8.52,0.00,23.50,28.10,30.83,4.86,28.11,1031.90,2024.98,1338.06,1722.34,1868.88,350.24,352.60,34.12,0000 0000 0000 0000 000000
2015-01-15 02:36:41,0.16,8.52,0.00,23.49,28.10,30.86,4.79,28.13,1031.91,2024.98,1337.53,1721.97,1868.10,350.05,352.51,34.15,0000 0000 0000 0000 000000
2015-01-15 02:41:42,0.19,8.53,0.00,23.43,28.10,30.90,4.83,28.26,1031.83,2024.98,1336.86,1721.19,1867.57,350.02,352.55,34.18,0000 0000 0000 0000 000000
2015-01-15 02:46:43,0.13,8.53,0.00,23.44,28.10,30.97,4.88,28.06,1031.92,2024.97,1336.08,1720.93,1867.02,349.82,352.18,34.21,0000 0000 0000 0000 000000
2015-01-15 02:51:45,0.27,8.54,0.00,23.42,28.10,31.02,4.87,28.27,1032.17,2024.98,1335.49,1720.13,1866.40,350.24,352.75,34.24,0000 0000 0000 0000 000000
2015-01-15 02:56:46,0.05,8.54,0.00,23.43,28.10,31.01,4.89,28.15,1032.18,2024.97,1334.94,1719.90,1865.96,350.08,352.44,34.27,0000 0000 0000 0000 000000
2015-01-15 03:01:47,0.27,8.55,0.00,23.43,28.10,31.01,4.79,28.08,1031.99,2024.95,1334.15,1719.13,1865.19,350.01,352.61,34.30,0000 0000 0000 0000 000000
2015-01-15 03:06:49,0.06,8.55,0.00,23.39,28.10,31.00,4.92,28.18,1031.98,2024.98,1333.83,1718.91,1864.90,350.03,352.60,34.33,0000 0000 0000 0000 000000
2015-01-15 03:11:50,0.24,8.56,0.00,23.40,28.10,30.97,4.87,28.02,1032.04,2024.97,1333.04,1718.12,1864.11,349.33,351.77,34.36,0000 0000 0000 0000 000000
2015-01-15 03:16:51,0.18,8.56,0.00,23.43,28.10,31.00,4.86,27.98,1032.24,2024.97,1332.31,1717.83,1863.72,350.05,352.37,34.39,0000 0000 0000 0000 000000
2015-01-15 03:21:52,0.14,8.57,0.00,23.43,28.10,30.93,4.88,27.93,1032.25,2024.95,1331.86,1717.06,1863.02,349.89,352.38,34.41,0000 0000 0000 0000 000000
2015-01-15 03:26:54,0.22,8.57,0.00,23.49,28.10,30.94,4.86,27.94,1032.24,2024.95,1331.09,1716.69,1862.37,350.49,352.86,34.44,0000 0000 0000 0000 000000
2015-01-15 03:31:55,0.13,8.58,0.00,23.51,28.10,30.83,4.86,27.98,1032.24,2024.92,1330.64,1716.03,1861.96,349.67,352.11,34.47,0000 0000 0000 0000 000000
2015-01-15 03:36:56,0.19,8.58,0.00,23.52,28.10,30.82,4.89,28.02,1032.24,2024.92,1329.95,1715.62,1861.17,349.83,352.16,34.50,0000 0000 0000 0000 000000
2015-01-15 03:41:58,0.16,8.59,0.00,23.54,28.10,30.82,4.86,28.02,1032.24,2024.89,1329.10,1715.01,1860.81,349.87,351.95,34.53,0000 0000 0000 0000 000000
2015-01-15 03:46:59,0.20,8.59,0.00,23.54,28.10,30.81,4.87,28.02,1032.23,2024.94,1328.76,1714.49,1860.06,350.04,352.49,34.56,0000 0000 0000 0000 000000
2015-01-15 03:52:00,0.13,8.60,0.00,23.55,28.11,30.80,4.81,28.02,1032.09,2024.91,1328.03,1714.00,1859.56,349.85,352.13,34.59,0000 0000 0000 0000 000000
2015-01-15 03:57:01,0.23,8.61,0.00,23.56,28.12,30.81,4.87,28.14,1031.96,2024.93,1327.43,1713.44,1859.00,350.18,352.16,34.62,0000 0000 0000 0000 000000
2015-01-15 04:02:03,0.08,8.61,0.00,23.59,28.12,30.79,4.88,28.18,1032.06,2024.82,1326.89,1712.98,1858.28,349.98,352.17,34.65,0000 0000 0000 0000 000000
2015-01-15 04:07:04,0.22,8.62,0.00,23.61,28.12,30.79,4.90,28.01,1031.86,2024.81,1326.08,1712.23,1857.85,350.17,352.31,34.68,0000 0000 0000 0000 000000
2015-01-15 04:12:05,0.14,8.62,0.00,23.59,28.12,30.78,4.87,27.96,1031.91,2024.67,1325.51,1711.95,1857.08,350.38,352.57,34.71,0000 0000 0000 0000 000000
2015-01-15 04:17:06,0.19,8.63,0.00,23.62,28.12,30.81,4.79,27.97,1031.85,2024.76,1324.92,1711.20,1856.67,349.80,352.06,34.74,0000 0000 0000 0000 000000
2015-01-15 04:22:07,0.16,8.63,0.00,23.63,28.12,30.83,4.88,27.93,1031.91,2024.70,1324.09,1710.91,1856.02,349.54,351.62,34.77,0000 0000 0000 0000 000000
2015-01-15 04:27:09,0.25,8.64,0.00,23.63,28.12,30.79,4.80,27.69,1031.83,2024.82,1323.66,1710.10,1855.52,349.47,351.68,34.80,0000 0000 0000 0000 000000
2015-01-15 04:32:10,0.07,8.64,0.00,23.65,28.13,30.78,4.85,27.93,1031.90,2024.77,1322.99,1709.85,1855.00,349.92,352.24,34.82,0000 0000 0000 0000 000000
2015-01-15 04:37:11,0.16,8.65,0.00,23.65,28.13,30.79,4.85,27.99,1032.04,2024.44,1322.27,1709.08,1854.48,349.68,351.97,34.85,0000 0000 0000 0000 000000
2015-01-15 04:42:12,0.12,8.65,0.00,23.67,28.13,30.83,4.89,28.02,1031.91,2024.20,1321.65,1708.63,1853.98,350.43,352.48,34.88,0000 0000 0000 0000 000000
2015-01-15 04:47:14,0.20,8.66,0.00,23.66,28.14,30.86,4.83,28.11,1031.79,2024.33,1321.02,1708.02,1853.24,350.45,352.57,34.91,0000 0000 0000 0000 000000
2015-01-15 04:52:15,0.13,8.66,0.00,23.67,28.14,30.87,4.99,28.18,1031.78,2024.18,1320.44,1707.73,1852.88,350.29,352.24,34.94,0000 0000 0000 0000 000000
2015-01-15 04:57:17,0.13,8.66,0.00,23.68,28.14,30.86,4.86,27.93,1031.81,2024.14,1319.94,1707.03,1852.09,349.90,351.80,34.97,0000 0000 0000 0000 000000
2015-01-15 05:02:18,0.03,0.87,0.00,23.65,28.15,30.83,4.32,24.18,1031.84,2028.54,3252.18,3162.33,3432.24,311.63,313.71,0.00,0000 0000 0000 0000 000000
2015-01-15 05:07:19,0.04,0.00,0.00,23.67,28.15,30.81,4.85,26.91,1031.95,2029.07,3463.14,3322.49,3605.84,350.42,352.46,0.03,0000 0000 0000 0000 000000
2015-01-15 05:12:20,0.06,0.00,0.00,23.69,28.15,30.83,4.81,26.88,1032.04,2029.06,3460.58,3320.92,3603.82,349.38,351.49,0.06,0000 0000 0000 0000 000000
2015-01-15 05:17:21,0.10,0.01,0.00,23.67,28.15,30.80,4.83,26.83,1032.16,2029.05,3458.19,3319.36,3601.85,349.87,352.17,0.09,0000 0000 0000 0000 000000
2015-01-15 05:22:22,0.13,0.01,0.00,23.68,28.14,30.80,4.86,26.95,1032.20,2029.02,3455.99,3317.76,3600.01,350.09,352.34,0.12,0000 0000 0000 0000 000000
2015-01-15 05:27:23,0.15,0.02,0.00,23.67,28.14,30.82,4.89,26.89,1032.23,2029.01,3453.83,3316.26,3598.21,350.20,352.49,0.15,0000 0000 0000 0000 000000
2015-01-15 05:32:25,0.16,0.02,0.00,23.68,28.13,30.84,4.84,26.95,1032.24,2029.01,3451.69,3314.76,3596.54,350.19,352.48,0.18,0000 0000 0000 0000 000000
2015-01-15 05:37:26,0.15,0.03,0.00,23.68,28.13,30.82,4.85,26.81,1032.15,2029.03,3449.49,3313.33,3594.82,350.33,352.53,0.21,0000 0000 0000 0000 000000
2015-01-15 05:42:27,0.16,0.03,0.00,23.70,28.12,30.85,4.88,26.93,1032.04,2029.02,3447.24,3311.82,3593.10,350.35,352.53,0.24,0000 0000 0000 0000 000000
2015-01-15 05:47:28,0.14,0.04,0.00,23.74,28.12,30.85,4.77,26.98,1031.94,2029.03,3445.22,3310.41,3591.50,349.24,351.46,0.26,0000 0000 0000 0000 000000
2015-01-15 05:52:30,0.16,0.04,0.00,23.73,28.12,30.86,4.84,26.95,1032.06,2029.10,3443.14,3309.02,3589.98,349.55,351.62,0.29,0000 0000 0000 0000 000000
2015-01-15 05:57:31,0.13,0.05,0.00,23.73,28.12,30.81,4.86,26.81,1032.14,2029.08,3441.16,3307.63,3588.37,350.04,352.27,0.32,0000 0000 0000 0000 000000
2015-01-15 06:02:33,0.16,0.05,0.00,23.71,28.12,30.82,4.81,26.88,1032.18,2029.17,3439.26,3306.31,3586.79,349.87,351.90,0.35,0000 0000 0000 0000 000000
2015-01-15 06:07:34,0.14,0.06,0.00,23.73,28.12,30.81,4.83,26.77,1032.04,2029.08,3437.17,3304.82,3585.22,349.52,351.87,0.38,0000 0000 0000 0000 000000
2015-01-15 06:12:35,0.15,0.06,0.00,23.71,28.12,30.81,4.86,26.84,1032.07,2029.08,3435.09,3303.38,3583.63,349.71,351.96,0.41,0000 0000 0000 0000 000000
2015-01-15 06:17:37,0.15,0.06,0.00,23.73,28.12,30.79,4.83,26.88,1032.11,2029.03,3432.98,3301.83,3582.15,349.70,351.78,0.44,0000 0000 0000 0000 000000
2015-01-15 06:22:38,0.15,0.07,0.00,23.68,28.12,30.83,4.77,26.77,1032.19,2029.06,3431.03,3300.53,3580.67,349.66,351.92,0.47,0000 0000 0000 0000 000000
2015-01-15 06:27:40,0.13,0.07,0.00,23.75,28.12,30.85,4.85,26.87,1032.17,2029.09,3429.02,3299.14,3579.18,349.23,351.42,0.50,0000 0000 0000 0000 000000
2015-01-15 06:32:41,0.17,0.08,0.00,23.72,28.12,30.85,4.86,26.93,1031.87,2029.20,3427.05,3297.78,3577.70,350.46,352.45,0.53,0000 0000 0000 0000 000000
2015-01-15 06:37:42,0.14,0.08,0.00,23.74,28.12,30.84,4.88,26.97,1031.77,2029.24,3425.18,3296.49,3576.23,349.92,351.91,0.56,0000 0000 0000 0000 000000
2015-01-15 06:42:43,0.13,0.09,0.00,23.76,28.12,30.86,4.80,26.77,1031.76,2029.16,3423.24,3295.13,3574.60,349.46,351.58,0.59,0000 0000 0000 0000 000000
2015-01-15 06:47:45,0.15,0.09,0.00,23.71,28.11,30.85,4.82,26.90,1031.78,2029.12,3421.26,3293.66,3573.02,349.48,351.69,0.62,0000 0000 0000 0000 000000
2015-01-15 06:52:46,0.15,0.09,0.00,23.67,28.10,30.85,4.89,26.94,1031.87,2029.19,3419.27,3292.32,3571.56,350.33,352.41,0.65,0000 0000 0000 0000 000000
2015-01-15 06:57:47,0.14,0.10,0.00,23.71,28.10,30.83,4.80,26.92,1031.89,2029.23,3417.28,3290.91,3570.10,349.06,351.11,0.67,0000 0000 0000 0000 000000
2015-01-15 07:02:48,0.19,0.10,0.00,23.75,28.10,30.83,4.81,26.78,1032.22,2029.45,3415.53,3289.63,3568.59,349.53,351.76,0.70,0000 0000 0000 0000 000000
2015-01-15 07:07:50,0.08,0.11,0.00,23.72,28.10,30.83,4.81,26.96,1032.11,2029.23,3413.59,3288.22,3567.05,349.27,351.40,0.73,0000 0000 0000 0000 000000
2015-01-15 07:12:51,0.14,0.11,0.00,23.74,28.10,30.83,4.87,26.91,1031.82,2029.10,3411.59,3286.77,3565.45,350.16,352.14,0.76,0000 0000 0000 0000 000000
2015-01-15 07:17:52,0.16,0.12,0.00,23.70,28.10,30.80,4.84,26.83,1031.77,2029.21,3409.70,3285.51,3563.90,350.04,352.08,0.79,0000 0000 0000 0000 000000
2015-01-15 07:22:54,0.13,0.12,0.00,23.71,28.10,30.80,4.81,26.82,1031.99,2029.19,3407.79,3284.08,3562.47,349.96,352.06,0.82,0000 0000 0000 0000 000000
2015-01-15 07:27:55,0.15,0.12,0.00,23.72,28.09,30.84,4.81,26.93,1032.15,2029.10,3405.76,3282.70,3560.97,349.54,351.53,0.85,0000 0000 0000 0000 000000
2015-01-15 07:32:56,0.14,0.13,0.00,23.74,28.07,30.82,4.82,26.75,1032.20,2029.12,3403.79,3281.39,3559.57,349.78,351.87,0.88,0000 0000 0000 0000 000000
2015-01-15 07:37:57,0.14,0.13,0.00,23.74,28.07,30.80,4.79,26.87,1032.24,2029.22,3401.94,3280.07,3558.10,349.64,351.81,0.91,0000 0000 0000 0000 000000
2015-01-15 07:42:58,0.15,0.14,0.00,23.76,28.07,30.82,4.85,26.79,1032.24,2029.14,3399.99,3278.67,3556.52,350.16,352.16,0.94,0000 0000 0000 0000 000000
2015-01-15 07:48:00,0.14,0.14,0.00,23.74,28.07,30.81,4.85,26.78,1032.24,2029.20,3398.18,3277.45,3555.22,350.11,352.19,0.97,0000 0000 0000 0000 000000
2015-01-15 07:53:01,0.12,0.15,0.00,23.73,28.07,30.78,4.83,26.68,1032.25,2029.22,3396.36,3276.16,3553.71,350.27,352.36,1.00,0000 0000 0000 0000 000000
2015-01-15 07:58:02,0.20,0.15,0.00,23.69,28.06,30.79,4.85,26.73,1032.25,2029.42,3394.57,3274.91,3552.46,350.05,352.26,1.03,0000 0000 0000 0000 000000
2015-01-15 08:03:04,0.14,0.16,0.00,23.69,28.05,30.79,4.92,26.82,1032.24,2029.57,3392.70,3273.62,3551.02,350.47,352.57,1.06,0000 0000 0000 0000 000000
2015-01-15 08:08:05,0.14,0.16,0.00,23.70,28.05,30.80,4.82,26.75,1032.25,2029.54,3390.90,3272.36,3549.62,349.80,352.09,1.08,0000 0000 0000 0000 000000
2015-01-15 08:13:06,0.14,0.16,0.00,23.70,28.05,30.79,4.85,26.69,1032.24,2029.72,3389.16,3271.09,3548.26,350.04,351.92,1.11,0000 0000 0000 0000 000000
2015-01-15 08:18:08,0.15,0.17,0.00,23.72,28.05,30.80,4.86,26.76,1032.25,2029.65,3387.31,3269.67,3546.75,350.00,352.12,1.14,0000 0000 0000 0000 000000
2015-01-15 08:23:09,0.15,0.17,0.00,23.74,28.05,30.78,4.80,26.70,1032.24,2029.82,3385.57,3268.63,3545.55,349.66,351.87,1.17,0000 0000 0000 0000 000000
2015-01-15 08:28:10,0.12,0.18,0.00,23.73,28.04,30.79,4.84,26.77,1032.24,2029.80,3383.74,3267.29,3544.06,350.24,352.28,1.20,0000 0000 0000 0000 000000
2015-01-15 08:33:12,0.14,0.18,0.00,23.70,28.03,30.75,4.90,26.93,1032.24,2029.82,3382.02,3265.97,3542.63,350.21,352.37,1.23,0000 0000 0000 0000 000000
2015-01-15 08:38:13,0.14,0.19,0.00,23.76,28.02,30.75,4.91,26.76,1032.24,2029.87,3380.34,3264.76,3541.24,350.65,352.72,1.26,0000 0000 0000 0000 000000
2015-01-15 08:43:15,0.14,0.19,0.00,23.76,28.02,30.74,4.84,26.77,1032.22,2029.87,3378.58,3263.58,3539.77,350.10,352.40,1.29,0000 0000 0000 0000 000000
2015-01-15 08:48:16,0.11,0.19,0.00,23.78,28.02,30.71,4.89,26.93,1032.03,2029.85,3376.78,3262.50,3538.51,350.94,353.05,1.32,0000 0000 0000 0000 000000
2015-01-15 08:53:18,0.14,0.20,0.00,23.76,28.02,30.72,4.82,26.90,1032.22,2029.84,3374.94,3261.19,3536.98,349.87,351.97,1.35,0000 0000 0000 0000 000000
2015-01-15 08:58:19,0.12,0.20,0.00,23.75,28.02,30.72,4.83,26.99,1032.23,2029.78,3373.12,3259.91,3535.63,349.60,351.71,1.38,0000 0000 0000 0000 000000
2015-01-15 09:03:20,0.14,0.21,0.00,23.75,28.02,30.69,4.86,26.85,1032.23,2029.84,3371.43,3258.71,3534.36,349.87,351.93,1.41,0000 0000 0000 0000 000000
2015-01-15 09:08:21,0.15,0.21,0.00,23.74,28.02,30.70,4.89,26.80,1032.23,2029.87,3369.72,3257.43,3532.88,350.02,352.22,1.44,0000 0000 0000 0000 000000
2015-01-15 09:13:23,0.12,0.21,0.00,23.74,28.02,30.74,4.80,26.76,1032.20,2029.88,3367.89,3256.25,3531.55,349.59,351.63,1.47,0000 0000 0000 0000 000000
2015-01-15 09:18:24,0.13,0.22,0.00,23.74,28.02,30.74,4.85,26.83,1031.97,2029.92,3366.14,3254.97,3530.22,349.77,351.65,1.49,0000 0000 0000 0000 000000
2015-01-15 09:23:25,0.13,0.22,0.00,23.75,28.01,30.72,4.80,26.85,1031.85,2029.94,3364.38,3253.77,3528.88,349.92,352.10,1.52,0000 0000 0000 0000 000000
2015-01-15 09:28:26,0.14,0.23,0.00,23.76,28.00,30.69,4.78,26.88,1031.88,2029.93,3362.62,3252.55,3527.58,350.02,352.17,1.55,0000 0000 0000 0000 000000
2015-01-15 09:33:28,0.12,0.23,0.00,23.76,28.00,30.70,4.84,26.82,1032.18,2029.91,3360.82,3251.29,3526.14,350.58,352.52,1.58,0000 0000 0000 0000 000000
2015-01-15 09:38:29,0.13,0.23,0.00,23.75,28.00,30.72,4.83,26.84,1032.24,2029.94,3359.00,3250.02,3524.86,349.91,351.97,1.61,0000 0000 0000 0000 000000
2015-01-15 09:43:30,0.13,0.24,0.00,23.74,28.00,30.72,4.77,26.85,1032.24,2029.94,3357.23,3248.85,3523.63,349.50,351.50,1.64,0000 0000 0000 0000 000000
2015-01-15 09:48:32,0.13,0.24,0.00,23.74,28.00,30.71,4.77,26.75,1032.24,2029.97,3355.63,3247.71,3522.38,349.79,352.02,1.67,0000 0000 0000 0000 000000
2015-01-15 09:53:33,0.13,0.25,0.00,23.73,28.00,30.70,4.81,26.81,1032.23,2029.95,3353.94,3246.48,3520.97,349.74,352.00,1.70,0000 0000 0000 0000 000000
2015-01-15 09:58:34,0.12,0.25,0.00,23.73,28.00,30.70,4.83,26.89,1032.20,2029.94,3352.11,3245.26,3519.75,349.81,351.92,1.73,0000 0000 0000 0000 000000
2015-01-15 10:03:35,0.12,0.25,0.00,23.75,28.00,30.71,4.85,26.79,1032.17,2029.96,3350.50,3244.07,3518.60,350.06,351.74,1.76,0000 0000 0000 0000 000000
2015-01-15 10:08:37,0.13,0.26,0.00,23.75,28.00,30.70,4.86,26.86,1031.83,2029.97,3348.85,3242.88,3517.26,350.14,352.14,1.79,0000 0000 0000 0000 000000
2015-01-15 10:13:38,0.13,0.26,0.00,23.72,27.99,30.67,4.84,26.84,1031.80,2029.98,3347.17,3241.76,3515.96,350.35,352.27,1.82,0000 0000 0000 0000 000000
2015-01-15 10:18:39,0.15,0.26,0.00,23.76,27.99,30.68,4.80,26.88,1031.77,2029.97,3345.44,3240.45,3514.50,349.69,351.66,1.85,0000 0000 0000 0000 000000
2015-01-15 10:23:41,0.12,0.27,0.00,23.79,27.98,30.67,4.87,26.95,1031.76,2029.97,3343.75,3239.27,3513.25,350.25,352.23,1.88,0000 0000 0000 0000 000000
2015-01-15 10:28:42,0.14,0.27,0.00,23.75,27.98,30.68,4.87,26.93,1031.77,2029.98,3341.91,3237.95,3511.83,350.36,352.26,1.90,0000 0000 0000 0000 000000
2015-01-15 10:33:43,0.13,0.28,0.00,23.75,27.97,30.69,4.87,27.04,1031.77,2029.96,3340.21,3236.74,3510.47,349.79,352.13,1.93,0000 0000 0000 0000 000000
2015-01-15 10:38:44,0.13,0.28,0.00,23.71,27.97,30.70,4.82,26.93,1031.77,2029.98,3338.51,3235.61,3509.25,349.78,351.82,1.96,0000 0000 0000 0000 000000
2015-01-15 10:43:46,0.13,0.28,0.00,23.73,27.97,30.68,4.81,26.82,1031.76,2029.96,3336.81,3234.34,3507.83,349.75,351.49,1.99,0000 0000 0000 0000 000000
2015-01-15 10:48:47,0.11,0.29,0.00,23.73,27.97,30.67,4.83,26.95,1031.76,2029.95,3335.45,3233.26,3506.49,350.27,352.27,2.02,0000 0000 0000 0000 000000
2015-01-15 10:53:48,0.11,0.29,0.00,23.73,27.97,30.68,4.76,26.72,1031.77,2029.96,3333.82,3232.24,3505.32,349.69,351.55,2.05,0000 0000 0000 0000 000000
2015-01-15 10:58:50,0.11,0.30,0.00,23.76,27.97,30.70,4.82,26.78,1031.77,2029.97,3332.04,3231.06,3504.28,350.28,352.24,2.08,0000 0000 0000 0000 000000
2015-01-15 11:03:51,0.12,0.30,0.00,23.72,27.97,30.69,4.88,26.87,1031.76,2029.98,3330.39,3229.92,3503.16,350.20,352.27,2.11,0000 0000 0000 0000 000000
2015-01-15 11:08:52,0.14,0.30,0.00,23.75,27.95,30.69,4.88,26.93,1031.76,2029.98,3328.67,3228.66,3501.78,350.07,352.02,2.14,0000 0000 0000 0000 000000
2015-01-15 11:13:53,0.11,0.31,0.00,23.79,27.95,30.65,4.85,26.88,1031.76,2029.98,3327.24,3227.60,3500.54,349.64,351.60,2.17,0000 0000 0000 0000 000000
2015-01-15 11:18:55,0.12,0.31,0.00,23.79,27.95,30.66,4.81,26.85,1031.76,2029.99,3325.72,3226.47,3499.36,349.96,351.89,2.20,0000 0000 0000 0000 000000
2015-01-15 11:23:56,0.11,0.31,0.00,23.76,27.95,30.66,4.86,26.87,1031.76,2029.99,3324.03,3225.37,3498.14,349.93,352.06,2.23,0000 0000 0000 0000 000000
2015-01-15 11:28:58,0.12,0.32,0.00,23.78,27.95,30.67,4.89,26.74,1031.76,2029.98,3322.46,3224.24,3496.83,350.16,351.88,2.26,0000 0000 0000 0000 000000
2015-01-15 11:33:59,0.11,0.32,0.00,23.80,27.94,30.65,4.84,26.90,1031.76,2029.98,3320.95,3223.17,3495.66,349.88,351.80,2.29,0000 0000 0000 0000 000000
2015-01-15 11:39:00,0.12,0.32,0.00,23.78,27.93,30.63,4.80,26.88,1031.76,2029.98,3319.47,3222.05,3494.51,349.51,351.61,2.31,0000 0000 0000 0000 000000
2015-01-15 11:44:01,0.12,0.33,0.00,23.79,27.92,30.61,4.81,26.83,1031.76,2029.98,3317.74,3220.89,3493.15,349.26,351.31,2.34,0000 0000 0000 0000 000000
2015-01-15 11:49:03,0.10,0.33,0.00,23.79,27.92,30.63,4.84,26.74,1031.76,2029.99,3316.41,3219.89,3492.00,350.28,352.03,2.37,0000 0000 0000 0000 000000
2015-01-15 11:54:04,0.13,0.33,0.00,23.78,27.92,30.61,4.81,26.77,1031.76,2029.99,3314.83,3218.76,3490.74,349.51,351.58,2.40,0000 0000 0000 0000 000000
2015-01-15 11:59:05,0.10,0.34,0.00,23.78,27.92,30.63,4.87,26.81,1031.75,2029.99,3313.43,3217.80,3489.64,350.43,352.43,2.43,0000 0000 0000 0000 000000
2015-01-15 12:04:06,0.12,0.34,0.00,23.78,27.92,30.63,4.81,26.79,1031.68,2029.98,3311.82,3216.72,3488.52,349.96,351.72,2.46,0000 0000 0000 0000 000000
2015-01-15 12:09:08,0.12,0.34,0.00,23.83,27.90,30.62,4.79,26.77,1031.75,2029.98,3310.13,3215.61,3487.42,349.35,351.36,2.49,0000 0000 0000 0000 000000
2015-01-15 12:14:09,0.12,0.35,0.00,23.78,27.90,30.61,4.89,26.82,1031.74,2029.99,3308.59,3214.51,3486.17,350.00,351.89,2.52,0000 0000 0000 0000 000000
2015-01-15 12:19:10,0.11,0.35,0.00,23.77,27.90,30.60,4.82,26.86,1031.75,2029.99,3307.00,3213.41,3484.94,349.88,352.23,2.55,0000 0000 0000 0000 000000
2015-01-15 12:24:12,0.12,0.36,0.00,23.82,27.90,30.60,4.78,26.82,1031.72,2029.99,3305.46,3212.33,3483.79,349.81,351.80,2.58,0000 0000 0000 0000 000000
2015-01-15 12:29:13,0.12,0.36,0.00,23.80,27.90,30.62,4.78,26.81,1031.48,2029.99,3303.93,3211.33,3482.63,349.83,351.54,2.61,0000 0000 0000 0000 000000
2015-01-15 12:34:14,0.11,0.36,0.00,23.81,27.90,30.61,4.84,26.88,1031.29,2029.99,3302.51,3210.19,3481.39,349.77,351.30,2.64,0000 0000 0000 0000 000000
2015-01-15 12:39:15,0.14,0.37,0.00,23.82,27.90,30.60,4.88,26.98,1031.27,2029.99,3300.84,3209.02,3480.04,349.65,351.40,2.67,0000 0000 0000 0000 000000
2015-01-15 12:44:17,0.09,0.37,0.00,23.79,27.90,30.60,4.88,26.85,1031.27,2029.99,3299.37,3207.94,3478.87,350.59,352.13,2.70,0000 0000 0000 0000 000000
2015-01-15 12:49:18,0.11,0.37,0.00,23.81,27.89,30.59,4.83,26.90,1031.27,2029.99,3297.77,3206.96,3477.81,349.70,351.37,2.73,0000 0000 0000 0000 000000
2015-01-15 12:54:19,0.10,0.38,0.00,23.81,27.89,30.59,4.87,26.90,1031.27,2029.99,3296.39,3205.98,3476.79,350.69,352.50,2.75,0000 0000 0000 0000 000000
2015-01-15 12:59:20,0.13,0.38,0.00,23.84,27.89,30.59,4.90,26.90,1031.14,2029.99,3294.77,3204.93,3475.66,350.50,352.07,2.78,0000 0000 0000 0000 000000
2015-01-15 13:04:22,0.11,0.38,0.00,23.83,27.88,30.59,4.80,26.97,1031.00,2029.99,3293.33,3203.85,3474.56,350.35,351.97,2.81,0000 0000 0000 0000 000000